Regional Weather Roundup
Issued by NWS Newport/Morehead, NC

Current Version | Previous Version | Graphics & Text | Print | Product List | Glossary On
Versions: 1 2 3 4 5 6 7 8 9 10 11 12 13 14 15 16 17 18 19 20 21 22 23 24 25 26 27 28 29 30 31 32 33 34 35 36 37 38 39 40 41 42 43 44 45 46 47 48 49 50
000 ASUS42 KMHX 211710 RWRMHX WEATHER ROUNDUP FOR EASTERN NORTH CAROLINA NATIONAL WEATHER SERVICE NEWPORT/MOREHEAD CITY NC 1200 PM EST FRI NOV 21 2014 NOTE: "FAIR" INDICATES FEW OR NO CLOUDS BELOW 12,000 FEET WITH NO SIGNIFICANT WEATHER AND/OR OBSTRUCTIONS TO VISIBILITY NCZ015>017-031-032-045>047-102-103-211800- NORTH COAST CITY SKY/WX TMP DP RH WIND PRES REMARKS EDENTON NOT AVBL ELIZABETH CITY SUNNY 47 14 26 NW17 30.41F KITTY HAWK NOT AVBL MANTEO NOT AVBL $$ NCZ045>047-081-094-103-104-211800- CENTRAL COAST CITY SKY/WX TMP DP RH WIND PRES REMARKS FRISCO SUNNY 46 29 51 N8G20 30.38F SWANQUARTER N/A 48 N/A N/A NW14G22 30.36S $$ NCZ095-097-098-100-101-211800- SOUTHERN COAST CITY SKY/WX TMP DP RH WIND PRES REMARKS BEAUFORT SUNNY 50 21 32 N16 30.40S CEDAR ISLAND N/A 46 N/A N/A NW16G23 30.44S JACKSONVILLE SUNNY 50 17 27 N12 30.40F PINEY ISLAND SUNNY 49 22 34 N16 30.40F WILMINGTON SUNNY 53 21 28 N10 30.40S $$ NCZ011>013-027>030-043-044-078>080-089-090>093-098-211800- COASTAL PLAIN CITY SKY/WX TMP DP RH WIND PRES REMARKS AHOSKIE SUNNY 42 14 32 N7 30.43F CLINTON SUNNY 50 20 29 N9 30.42F ELIZABETHTOWN SUNNY 51 19 28 N3 30.41F GOLDSBORO SUNNY 50 17 27 N12G20 30.40F GREENVILLE NOT AVBL HAVELOCK SUNNY 50 19 29 N15G23 30.41F KENANSVILLE NOT AVBL KINSTON SUNNY 50 14 23 N12G18 30.42F NEW BERN SUNNY 50 18 28 N16 30.42S RICHLANDS SUNNY 50 18 27 NW9G18 30.41F ROCKY MOUNT SUNNY 48 9 20 NW16 30.43F WASHINGTON SUNNY 47 14 27 NW13 30.42S WHITEVILLE NOT AVBL $$ AMZ130-135-150-152-154-156-158-170-250-252-270-ANZ085-086-088-633-658-670-211800- MARINE OBSERVATIONS STATION/POSITION TIME TEMP WIND PRES WAVE SWELL AIR SEA DIR/SP/G HT/PER HT/PER (UTC) (F) (DEG/KT/KT) (MB) (FT/S) (FT/S) CHESAPEAKE LIGHT 1600 38 340/ 27/ 30 1029.7 64 E VA BEACH 1700 42 61 330/ 21/ 27 1028.1 7/ 7 DUCK 1700 41 55 350/ 17/ 20 1028.5 2 E DUCK 1700 56 N/A 5/ 6 10 NE DUCK 1700 58 N/A 6/ 6 OREGON INLET 1700 45 48 340/ 13/ 19 1029.0 13E OREGON INLT 1700 63 N/A 5/ 5 HATTERAS CG 1700 45 52 10/ 18/ 21 1029.0 DIAMOND BUOY NOT AVBL 17 S OCRACOKE NOT AVBL CAPE LOOKOUT 1600 48 360/ 15/ 19 1029.0 BEAUFORT LAB 1700 47 53 10/ 13/ 16 1028.5 30 SE NEW RIVER 1700 50 69 360/ 17/ 23 1028.7 4/ 5 5 SE WRIGHTSVLE 1600 47 60 20/ 16/ 17 1029.4 225 S CAPE HAT 1626 68 74 340/ 12/ 16 1026.5 5/ 7 3/ 7 41 SE CHARLESTON 1700 60 72 20/ 16/ 19 1028.1 4/ 5 2/ 8 $$

USA.gov is the U.S. government's official web portal to all federal, state and local government web resources and services.